Simultaneous Nadir Overpasses (SNOs) Predictions

Prediction of SNOs near US between NOAA-19 and NPP Satellite Orbit:

Table of predicted SNOs near US for the next 10.0 days since TLE Epoch: 1/11/2013
<
Index Date (NOAA-19) Time (NOAA-19) NOAA-19 Lat,Lon Date (NPP) Time (NPP) NPP Lat,Lon Distance(km) Time Diff (sec)
1 01/16/2013 06:29:37 42.51, -65.42 01/16/2013 06:29:18 43.04, -68.32 244.05 19
2 01/16/2013 08:10:25 46.94, -89.23 01/16/2013 08:09:32 47.43, -92.00 216.46 53
3 01/16/2013 09:53:05 44.91,-115.56 01/16/2013 09:51:37 45.40,-118.18 213.03 88
4 01/16/2013 17:59:46 49.94, -76.81 01/16/2013 17:55:31 49.63, -78.43 121.92 255
5 01/16/2013 19:41:51 49.95,-102.33 01/16/2013 19:37:02 49.70,-103.84 111.81 289
6 01/16/2013 21:21:53 42.91,-124.99 01/16/2013 21:16:30 42.66,-126.42 120.07 323
7 01/17/2013 08:07:15
